Location: Bjelajci
(45.0103°N, 16.1758°E)
Time: 04:15:19
(UTC+00:00)

Cosmos 1190 Rocket - Pass Details

Date: 14 July 2020
Orbit: 756 x 781 km, 74.1° (Epoch: 11 August)

Event Time Altitude Azimuth Distance (km) Brightness Sun altitude
Exits shadow 00:26:20 36° 162° (SSE) 1,191 4.6 -20.6°
Maximum altitude 00:28:09 55° 106° (ESE) 919 4.4 -20.5°
Drops below altitude 10° 00:33:16 10° 29° (NNE) 2,316 7.7 -20.1°
Sets 00:35:42 0° 26° (NNE) 3,251 8.9 -20.0°
